This is the latest recevied weather packets stored in our database for station/object NN5DX-13. If no packets are shown the sender has not sent any weather packets the latest 10 day(s).
| Time | Temp. | Humidity | Pressure | Rain* | Wind** | Luminosity | Snow |
|---|---|---|---|---|---|---|---|
| 1787847920 | 30° C | 46% | 1021.1 hPa | 0 mm | - | - | - |
| 1787847620 | 29.44° C | 48% | 1021.4 hPa | 0 mm | - | - | - |
| 1787847320 | 29.44° C | 48% | 1021 hPa | 0 mm | - | - | - |
| 1787847020 | 28.89° C | 50% | 1021 hPa | 0 mm | - | - | - |
| 1787846720 | 28.33° C | 49% | 1020.9 hPa | 0 mm | - | - | - |
| 1787846420 | 28.89° C | 50% | 1021 hPa | 0 mm | - | - | - |
| 1787846120 | 28.33° C | 50% | 1020.9 hPa | 0 mm | - | - | - |
| 1787845820 | 28.33° C | 50% | 1020.9 hPa | 0 mm | - | - | - |
| 1787845520 | 28.33° C | 51% | 1020.8 hPa | 0 mm | - | - | - |
| 1787845220 | 28.33° C | 50% | 1020.7 hPa | 0 mm | - | - | - |
| 1787844920 | 28.33° C | 50% | 1020.7 hPa | 0 mm | - | - | - |
| 1787844621 | 27.78° C | 51% | 1020.7 hPa | 0 mm | - | - | - |
| 1787844320 | 27.78° C | 51% | 1020.6 hPa | 0 mm | - | - | - |
| 1787844020 | 27.78° C | 52% | 1020.7 hPa | 0 mm | - | - | - |
| 1787843420 | 27.22° C | 52% | 1020.6 hPa | 0 mm | - | - | - |
| 1787843120 | 27.22° C | 53% | 1020.6 hPa | 0 mm | - | - | - |
| 1787842820 | 27.22° C | 53% | 1020.5 hPa | 0 mm | - | - | - |
| 1787842520 | 27.22° C | 53% | 1020.5 hPa | 0 mm | - | - | - |
| 1787842220 | 26.67° C | 54% | 1020.5 hPa | 0 mm | - | - | - |
| 1787841920 | 26.67° C | 54% | 1020.6 hPa | 0 mm | - | - | - |
| 1787841620 | 27.22° C | 54% | 1020.6 hPa | 0 mm | - | - | - |
| 1787841320 | 27.22° C | 54% | 1020.5 hPa | 0 mm | - | - | - |
| 1787841020 | 27.22° C | 53% | 1020.5 hPa | 0 mm | - | - | - |
| 1787840720 | 26.67° C | 54% | 1020.6 hPa | 0 mm | - | - | - |
| 1787840420 | 26.67° C | 53% | 1020.5 hPa | 0 mm | - | - | - |
* Rain latest hour (hover to see other rain measurements)
** Current wind speed in m/s (hover to see current wind gust speed)